View from above orbital plane
|
View from above satellite
|
Ground track
|
The orbit data is extracted from the following two-line orbital elements,
1 58U 60013A 21027.13524573 .00000085 00000-0 64850-6 0 9997
2 58 28.3287 39.8319 0165099 121.1361 240.5489 13.46325292969310
Epoch (UTC): | 27 January 2021 03:14:45 |
Eccentricity: | 0.0165099 |
inclination: | 28.3287° |
perigee height: | 962 km |
apogee height: | 1209 km |
right ascension of ascending node: | 39.8319° |
argument of perigee: | 121.1361° |
revolutions per day: | 13.46325292 |
mean anomaly at epoch: | 240.5489° |
orbit number at epoch: | 96931 |
The dashed part of the orbit path shows where the satellite is in the earth's shadow,
|
|